Orbital Elements at Epoch 2459200.5 (2020-Dec-17.0) TDB
Reference: JPL 19 (heliocentric ecliptic J2000)
Element | Value | Uncertainty (1-sigma) | Units |
e | .01129458749480789 | 5.4002e-08 | |
a | 3.018873092942213 | 2.5894e-08 | au |
q | 2.984776166658256 | 1.6387e-07 | au |
i | 1.825933606393781 | 5.1626e-06 | deg |
node | 147.9895984558543 | 0.0001587 | deg |
peri | 234.2517912502352 | 0.00025756 | deg |
M | 64.57154583874082 | 0.00020024 | deg |
tp | 2458856.859458677708 (2020-Jan-08.35945868) | 0.0010666 | TDB |
period | 1915.868565156801 5.25 | 2.4649e-05 6.749e-08 | d yr |
n | .1879043304677513 | 2.4176e-09 | deg/d |
Q | 3.05297001922617 | 2.6186e-08 | au |
|
| | Orbit Determination Parameters
Additional Information
|